Location: Brno
(49.2000°N, 16.6330°E)
Time: 21:13:22
(UTC+02:00)

Daily predictions for brighter satellites

Satellite Brightness Start Highest point End
(mag) Time Altitude Azimuth Time Altitude Azimuth Time Altitude Azimuth
NOSS 2-3 (E) 4.0 21:37:54 10° SW 21:42:35 90° NW 21:48:16 10° NE
COSMOS 2406 3.8 21:37:26 10° NNW 21:43:03 50° NE 21:48:39 10° SE
Helios 1B rocket 3.9 21:46:02 10° NE 21:49:08 20° E 21:52:13 10° SE
Cosmos 1269 Rocket 4.3 21:44:26 10° S 21:49:31 49° ESE 21:54:38 10° NNE
BREEZE-M R/B 4.5 21:41:54 10° W 21:50:42 81° N 21:56:24 10° E
Cosmos 1331 Rocket 4.3 21:46:25 10° NNW 21:51:33 57° ENE 21:56:41 10° SE
ATLAS 2AS CENTAUR R/B 3.4 21:45:46 10° S 21:53:07 45° ESE 22:00:44 10° NE
Cosmos 1674 3.4 21:50:00 10° SSE 21:53:29 36° E 21:57:02 10° NNE
ARGOS 3.7 21:49:01 10° S 21:54:23 62° WSW 21:59:47 10° NNW
CSL-04 DEB 4.3 21:52:16 10° SSE 21:56:12 86° ENE 22:00:09 10° NNW
Cosmos 2221 4.2 21:54:47 10° NNE 21:58:06 21° ENE 22:01:23 10° ESE
Cosmos 1825 Rocket 3.9 21:55:18 10° SSW 21:59:45 70° W 22:04:14 10° N
Cosmos 724 4.4 21:54:26 10° NW 22:00:28 86° SW 22:06:35 10° SE
Cosmos 1844 4.4 21:55:20 10° S 22:00:28 36° ESE 22:05:41 10° NE
Terra 2.7 21:56:20 10° SE 22:00:41 37° ENE 22:05:04 10° N
Meteor 1-24 Rocket 3.9 21:58:02 10° S 22:04:03 79° E 22:10:06 10° NNE
Cosmos 1437 3.1 22:01:22 10° NNW 22:04:30 62° W 22:07:37 10° S
Cosmos 1844 Rocket 3.0 21:59:18 10° S 22:04:43 49° ESE 22:10:09 10° NE
Cosmos 921 Rocket 3.1 22:00:54 10° NNW 22:05:23 84° ENE 22:09:54 10° SSE
NOSS 8 (A) 4.2 22:03:26 10° SSW 22:06:35 60° SE 22:09:50 10° NE
Meteor 2-5 Rocket 4.3 22:06:53 10° SSW 22:12:47 65° WNW 22:18:40 10° N
Cosmos 1346 Rocket 3.2 22:09:05 10° NNW 22:13:02 63° W 22:17:00 10° S
CZ-2C R/B 3.9 22:09:33 10° SE 22:15:00 47° ENE 22:20:30 10° N
Cosmos 1726 2.2 22:11:29 10° N 22:15:14 65° ENE 22:18:38 12° SSE
Cosmos 1553 Rocket 4.0 22:11:50 10° S 22:17:47 61° E 22:23:46 10° NNE
Cosmos 1302 Rocket 4.4 22:12:34 10° NNW 22:17:48 55° ENE 22:22:29 13° SE
Cosmos 2251 Rocket 4.5 22:17:57 11° SSE 22:22:20 30° E 22:26:55 10° NE
Cosmos 2082 Rocket 3.7 22:17:45 10° NNW 22:22:42 29° NE 22:27:38 10° ESE
Meteor 2-1 Rocket 4.5 22:21:14 10° NNW 22:27:11 80° W 22:33:05 10° S
SPOT 5 3.2 22:22:29 10° S 22:27:32 74° WSW 22:32:50 10° NNW
CARTOSAT-1 3.6 22:24:35 13° SSE 22:28:23 71° ENE 22:32:43 10° N
BREEZE-M DEB (TANK) 3.0 22:22:11 10° SW 22:29:10 49° SSE 22:31:54 10° E
Cosmos 1833 Rocket 3.9 22:25:42 10° NNW 22:30:49 34° NE 22:35:54 10° ESE
KORONAS-FOTON 3.8 22:27:17 10° S 22:31:10 75° E 22:35:06 10° NNE
ERS-1 Rocket 3.9 22:27:46 10° S 22:32:34 45° W 22:37:25 10° NNW
Iridium 81 4.4 22:33:29 11° SSW 22:35:43 53° W 22:38:35 10° N
Cosmos 2263 Rocket 4.2 22:30:43 10° WSW 22:35:45 32° NW 22:40:48 10° NNE
CENTAUR R/B 3.8 22:28:46 10° NW 22:36:09 50° NE 22:44:17 10° ESE
Lacrosse 5 1.8 22:31:27 10° SW 22:36:30 74° SE 22:41:34 10° ENE
Cosmos 1238 Rocket 4.0 22:34:34 10° SW 22:37:11 29° WNW 22:39:55 10° N
Cosmos 1386 Rocket 4.5 22:33:06 10° N 22:39:15 74° E 22:44:26 14° SSE
Cosmos 220 Rocket 4.4 22:37:30 13° S 22:40:53 41° ESE 22:44:53 10° NE
CZ-2C R/B 3.3 22:40:57 10° NNE 22:46:03 38° E 22:49:46 17° SSE
IGS 5A 3.6 22:46:12 15° S 22:49:34 70° WSW 22:53:45 10° NNW
Cosmos 1842 Rocket 3.7 22:46:41 10° NNW 22:51:01 71° W 22:54:33 15° S
Cosmos 1076 Rocket 4.3 22:54:25 19° SE 22:56:50 34° E 23:00:42 10° NNE
SL-8 R/B 4.0 22:56:18 10° SW 23:00:51 43° SSE 23:05:25 10° E
Cosmos 807 4.2 23:02:46 20° SSW 23:04:42 79° W 23:07:56 10° N
Meteor 1-21 Rocket 4.3 23:00:10 11° S 23:05:51 87° E 23:11:42 10° NNE
Meteor 1-29 3.0 23:03:17 10° N 23:06:43 79° WNW 23:09:18 16° SSW
Cosmos 1745 Rocket 4.4 23:01:42 10° NNW 23:07:56 60° W 23:13:31 13° S
H-2A R/B 4.3 23:05:57 10° E 23:08:10 14° ENE 23:10:23 10° NNE
Mayak 0.7 23:09:56 10° NE 23:12:31 16° E 23:13:53 14° ESE
USA 238 DEB 4.5 23:05:54 10° NW 23:12:34 44° WSW 23:17:49 17° S
USA 238 4.4 23:06:01 10° NW 23:12:41 44° WSW 23:17:55 17° S
Cosmos 1340 4.1 23:10:21 10° NNW 23:13:44 31° W 23:16:38 13° SSW
Okean 3 Rocket 4.0 23:13:27 23° SSE 23:15:54 47° E 23:20:07 10° NNE
H-2A R/B 4.4 23:13:21 10° SW 23:16:39 17° W 23:20:01 10° NW
ATLAS 3B R/B 3.0 23:10:25 10° NW 23:16:48 50° WSW 23:21:19 19° S
COBE Rocket 4.4 23:12:00 10° NNE 23:16:53 48° E 23:19:59 22° SSE
Cosmos 1626 2.2 23:16:59 26° SSE 23:18:53 58° E 23:22:35 10° NNE
Cosmos 1328 3.9 23:19:10 25° SSE 23:21:14 57° E 23:25:08 10° NNE
APEX 4.0 23:19:48 10° NW 23:22:32 31° WSW 23:23:58 22° SSW
Cosmos 2278 Rocket 2.2 23:18:14 14° SSW 23:23:07 66° ESE 23:28:46 10° NNE
Cosmos 1455 2.9 23:20:55 10° N 23:24:31 40° ENE 23:26:18 24° SE
Cosmos 1300 3.6 23:20:58 10° NNW 23:24:37 43° W 23:27:02 19° SSW
Helios 1B rocket 3.5 23:20:44 10° N 23:24:39 43° WNW 23:28:31 10° SW
NOSS 2-2 (C) 4.3 23:25:26 25° SE 23:26:19 27° ESE 23:30:02 10° ENE
NOSS 3-2 (A) 4.3 23:19:12 10° NW 23:26:29 57° WSW 23:32:14 20° SSE
COSMOS 2406 4.4 23:22:06 10° NW 23:27:11 32° WSW 23:31:17 14° SSW
Cosmos 2221 3.3 23:31:47 10° NNW 23:35:56 45° W 23:38:40 19° SSW
Terra 3.2 23:34:57 13° SSW 23:38:29 31° W 23:42:44 10° NNW
Cosmos 1328 Rocket 4.2 23:35:48 10° N 23:39:58 43° ENE 23:42:11 24° SE
Cosmos 1709 Rocket 4.2 23:35:27 10° NNW 23:41:39 65° W 23:46:02 20° S
ATLAS 2AS CENTAUR R/B 3.6 23:36:08 10° WSW 23:44:02 62° NW 23:52:07 10° NE
Cosmos 2058 3.8 23:44:07 25° SE 23:45:41 35° E 23:49:28 10° NNE
Cosmos 1844 Rocket 4.3 23:43:38 10° WSW 23:48:49 35° NW 23:53:59 10° NNE
NOSS 3-2 (C) 4.3 23:42:53 10° NW 23:50:09 55° WSW 23:55:26 22° S
Meteor 1-27 4.3 23:46:52 10° NNW 23:52:45 87° E 23:56:18 25° SSE
Meteor 2-10 Rocket 4.4 23:48:23 10° N 23:53:11 40° ENE 23:56:21 20° SE
Cosmos 2369 Rocket 4.3 23:54:05 10° ESE 23:55:29 11° E 23:56:52 10° E
